Regional Weather Roundup
Issued by NWS

Home | Current Version | Previous Version | Text Only | Print | Product List | Glossary Off
Versions: 1 2 3 4 5 6 7 8 9 10 11 12 13 14 15 16 17 18 19 20 21 22 23 24 25 26 27

000
ASUS45 KBOU 221010
RWRCO

WEATHER ROUNDUP FOR COLORADO
NATIONAL WEATHER SERVICE DENVER/BOULDER CO
300 AM MST WED NOV 22 2017

NOTE: "FAIR" INDICATES FEW OR NO CLOUDS BELOW 12000 FEET WITH NO
SIGNIFICANT WEATHER AND/OR OBSTRUCTIONS TO VISIBILITY.

COZ001>005-013-030-031-221100-
...NORTHWEST COLORADO...

CITY           SKY/WX    TMP DP  RH WIND       PRES   REMARKS
CRAIG          MOCLDY    32  29  88 CALM      30.43F
HAYDEN         FAIR      35  32  88 SE6       30.44F WCI  30
MEEKER         MOCLDY    36  31  82 CALM      30.44S
RABBIT EARS PA FOG      N/A N/A N/A W5        30.49S VSB 1/2
STEAMBOAT SPGS MOCLDY    33  32  98 W3        30.45R
WALDEN         FAIR      30  25  80 S8        30.43S WCI  23
$$

COZ006>008-011-221100-
...WEST CENTRAL VALLEYS...

CITY           SKY/WX    TMP DP  RH WIND       PRES   REMARKS
GRAND JUNCTION FAIR      35  26  69 NE6       30.44R WCI  30
MONTROSE       FAIR      32  28  85 S3        30.47R
EAGLE          CLOUDY    32  29  88 E3        30.49R
RIFLE          FAIR      30  29  96 SE3       30.47R
DELTA          FAIR      33  24  69 CALM      30.46R
NUCLA          FAIR      34  27  75 CALM      30.47S
$$

COZ017>023-064>068-221100-
...SOUTHWEST COLORADO...

CITY           SKY/WX    TMP DP  RH WIND       PRES   REMARKS
DURANGO        FAIR      26  19  74 NE6       30.40S WCI  19
CORTEZ         FAIR      29  23  78 NE6       30.40S WCI  23
PAGOSA SPRINGS FAIR      32  22  66 CALM      30.43S
TELLURIDE      FAIR      33  23  68 SE5       30.53S WCI  28
WOLF CREEK PAS FAIR      34  10  37 NW6       30.61S WCI  29
$$

COZ009-010-012-014-032>034-037-058>063-221100-
...CENTRAL COLORADO...

CITY           SKY/WX    TMP DP  RH WIND       PRES   REMARKS
ASPEN          FAIR      30  26  85 SW3       30.47R
BUENA VISTA    FAIR      33  24  69 NW10      30.42R WCI  25
COPPER MTN     FAIR      28  23  80 MISG      30.54S
BERTHOUD PASS  CLOUDY    21  10  63 NW30G40   30.45F WCI   3
COTTONWOOD PAS FAIR      41  25  52 W12G18    30.46R
GUNNISON       FAIR      24  22  91 CALM      30.50R
KREMMLING      FAIR      37  34  87 W3        30.46S
LEADVILLE      FAIR      23  20  88 N7        30.49R WCI  15
MONARCH PASS   FAIR      23  23 100 SW28G35   30.63S WCI   6
SALIDA         FAIR      42  25  50 N13G20    30.46R
SUNLIGHT       FAIR      30  27  86 SW8       30.58R WCI  23
WILKERSON PASS FAIR      32  18  55 N8G17     30.49R WCI  25
$$

COZ069>075-221100-
...SAN LUIS VALLEY/SANGRE DE CRISTO MOUNTAINS...

CITY           SKY/WX    TMP DP  RH WIND       PRES   REMARKS
ALAMOSA        FAIR      31  21  66 W3        30.43R
DEL NORTE      FAIR      34  18  51 W5        30.45R WCI  30
LA VETA PASS   FAIR      32  23  69 MISG        N/A
SAGUACHE       FAIR      34  28  80 NW9       30.45R WCI  26
$$

COZ035-036-038>040-221100-
...NORTHERN COLORADO FRONT RANGE...

CITY           SKY/WX    TMP DP  RH WIND       PRES   REMARKS
DENVER INTL AP MOCLDY    36  30  79 W7        30.23S
DMNS CITY PARK   N/A     35  33  91 SW3G10    30.23F
AURORA         MOCLDY    41  28  60 S12       30.23S
FRONT RANGE AP FAIR      37  32  84 W3        30.24R
ERIE MUNI ARPT FAIR      30  29  94 CALM      30.29F
BOULDER MUN AP FAIR      36  34  93 CALM      30.24R
CENTENNIAL     FAIR      38  28  67 SE8       30.24R
BROOMFIELD     FAIR      36  32  87 CALM      30.23F
FORT COLLINS   FAIR      33  32  96 CALM      30.25R
LONGMONT       FAIR      34  32  91 W3        30.25F
$$

COZ041-046-047-076>085-087-088-221100-
...PIKES PEAK/PALMER DIVIDE AND SOUTHERN FOOTHILLS...

CITY           SKY/WX    TMP DP  RH WIND       PRES   REMARKS
COLO. SPRINGS  FAIR      30  25  81 N6        30.30F WCI  24
A. F. ACADEMY  FAIR      27  26  95 N10       30.30F WCI  17
SCHRIEVER AFB  FAIR      33  27  78 CALM      30.30F
CHEYENNE MTN   FAIR      41  23  48 NW3       30.25F
ELLICOTT         N/A    N/A N/A N/A CALM      30.28F
FALCON         FAIR      31  28  88 W8        30.30S WCI  24
FORT CARSON    FAIR      30  27  89 NW9       30.28F WCI  21
LIMON          FAIR      29  26  89 CALM      30.25F
MONUMENT HILL  FAIR      32  27  80 S8        30.30R WCI  25
CANON CITY     FAIR      43  30  61 W6        30.29S
WALSENBURG     FAIR      36  32  87 S6        30.30F
TRINIDAD       FAIR      38  28  67 W12       30.30F
$$

COZ042>045-048>051-090-091-221100-
...NORTHEAST COLORADO...

CITY           SKY/WX    TMP DP  RH WIND       PRES   REMARKS
GREELEY ARPT   FAIR      31  29  92 CALM      30.25S
AKRON          FAIR      39  27  62 SW15      30.21F
BURLINGTON     FAIR      35  26  69 SW13      30.24F WCI  26
WRAY           NOT AVBL
YUMA           FAIR      34  28  80 SW9       30.21F WCI  26
STERLING       FAIR      30  27  86 S3        30.21S
HOLYOKE        FAIR      34  28  80 SW5       30.21F WCI  30
FORT MORGAN    FAIR      30  25  82 W10       30.24S WCI  21
$$

COZ086-089-092>099-221100-
...SOUTHEAST COLORADO...

CITY           SKY/WX    TMP DP  RH WIND       PRES   REMARKS
PUEBLO         FAIR      30  25  81 W5        30.29F WCI  25
LA JUNTA       FAIR      31  26  82 NW5       30.28F WCI  26
LAMAR          FAIR      27  21  78 N3        30.28F
SPRINGFIELD      N/A     32  27  81 SW8       30.29F WCI  25
$$




USA.gov is the U.S. government's official web portal to all federal, state and local government web resources and services.